Terug naar catalogus

RASSVET-3 9

ActiefWetenschapPO
NORAD 68368·PAYLOAD·🇷🇺 Russia

Gelanceerd Mar 23, 2026 vanaf Plesetsk Cosmodrome

Loading…

Volgende Passages (komende 24 uur)

TLE

VersSource: Space-Track

Epoch: Sep 14, 2026, 01:03 UTC

1 68368U 26061J   26257.04432636  .00001976  00000-0  94705-4 0  9998
2 68368  82.2895 281.6558 0003569  44.5205 315.6315 15.18379396 27044

Volg RASSVET-3 9 in realtime met AllMySat

Download on the App Store